N951LB KLGB-KLGB

Flight info

Callsign N951LB
Flight time 1h 14m
Altitude 3000
Route KLGB
Aircraft EC25/L-VGD/C

Departure

Time 2026-04-24 05:10
Airport Long Beach International Airport (KLGB)

Arrival

Time 2026-04-24 06:24
Airport Long Beach International Airport (KLGB)
Time Latitude Longitude Altitude Speed Heading
2026-04-24 05:08 33.81667 -118.14102 41 ft 0 kts 90°
2026-04-24 05:09 33.81666 -118.14102 41 ft 0 kts 90°
2026-04-24 05:10 33.81666 -118.14095 65 ft 3 kts 72°
2026-04-24 05:10 33.81700 -118.14047 189 ft 13 kts 320°
2026-04-24 05:10 33.81725 -118.13918 580 ft 22 kts 357°
2026-04-24 05:10 33.81846 -118.13641 824 ft 73 kts 50°
2026-04-24 05:11 33.82135 -118.13065 1269 ft 94 kts 31°
2026-04-24 05:11 33.82442 -118.12584 2039 ft 56 kts 31°
2026-04-24 05:11 33.82864 -118.12076 1906 ft 117 kts 24°
2026-04-24 05:11 33.83296 -118.11615 2437 ft 81 kts 22°
2026-04-24 05:12 33.83817 -118.11123 2774 ft 73 kts 23°
2026-04-24 05:12 33.84220 -118.10674 2818 ft 105 kts 27°
2026-04-24 05:12 33.84864 -118.10132 2862 ft 83 kts 27°
2026-04-24 05:12 33.85233 -118.09725 3413 ft 72 kts 22°
2026-04-24 05:13 33.85981 -118.08384 2987 ft 132 kts 68°
2026-04-24 05:13 33.86332 -118.07243 2160 ft 153 kts 66°
2026-04-24 05:13 33.86763 -118.06062 1592 ft 153 kts 61°
2026-04-24 05:14 33.87186 -118.04959 1236 ft 136 kts 64°
2026-04-24 05:14 33.87479 -118.04028 1333 ft 104 kts 63°
2026-04-24 05:14 33.87700 -118.03291 1492 ft 84 kts 61°
2026-04-24 05:14 33.87878 -118.02691 1649 ft 73 kts 60°
2026-04-24 05:15 33.88034 -118.02017 1611 ft 96 kts 65°
2026-04-24 05:15 33.88235 -118.01150 1499 ft 116 kts 66°
2026-04-24 05:15 33.88469 -118.00230 1490 ft 115 kts 67°
2026-04-24 05:15 33.88694 -117.99287 1420 ft 117 kts 68°
2026-04-24 05:16 33.88898 -117.98346 1394 ft 117 kts 69°
2026-04-24 05:16 33.89103 -117.97381 1317 ft 119 kts 70°
2026-04-24 05:16 33.89323 -117.96420 1285 ft 117 kts 68°
2026-04-24 05:16 33.89547 -117.95456 1207 ft 120 kts 68°
2026-04-24 05:17 33.89791 -117.94528 1232 ft 115 kts 64°
2026-04-24 05:17 33.90077 -117.93665 1311 ft 106 kts 56°
2026-04-24 05:17 33.90439 -117.92930 1397 ft 100 kts 49°
2026-04-24 05:17 33.90817 -117.92269 1503 ft 94 kts 45°
2026-04-24 05:18 33.91254 -117.91596 1382 ft 110 kts 45°
2026-04-24 05:18 33.91727 -117.90828 1289 ft 116 kts 50°
2026-04-24 05:18 33.92184 -117.90031 1287 ft 114 kts 49°
2026-04-24 05:18 33.92605 -117.89236 1310 ft 111 kts 53°
2026-04-24 05:19 33.92981 -117.88441 1363 ft 107 kts 51°
2026-04-24 05:19 33.93380 -117.87730 1471 ft 98 kts 44°
2026-04-24 05:19 33.93841 -117.87157 1550 ft 94 kts 32°
2026-04-24 05:19 33.94404 -117.86640 1432 ft 110 kts 29°
2026-04-24 05:20 33.95051 -117.86102 1344 ft 116 kts 33°
2026-04-24 05:20 33.95497 -117.85339 1424 ft 104 kts 72°
2026-04-24 05:20 33.95227 -117.84822 1606 ft 68 kts 191°
2026-04-24 05:20 33.95340 -117.85103 1334 ft 53 kts 347°
2026-04-24 05:21 33.95343 -117.85190 1182 ft 58 kts 182°
2026-04-24 05:21 33.94906 -117.85563 1191 ft 86 kts 239°
2026-04-24 05:21 33.95113 -117.85745 1138 ft 42 kts 39°
2026-04-24 05:21 33.95079 -117.85509 1157 ft 23 kts 28°
2026-04-24 05:22 33.95149 -117.85400 1173 ft 13 kts 30°
2026-04-24 05:22 33.95213 -117.85347 1170 ft 8 kts 27°
2026-04-24 05:22 33.95260 -117.85304 1184 ft 14 kts 237°
2026-04-24 05:22 33.95155 -117.85447 1189 ft 30 kts 63°
2026-04-24 05:23 33.95179 -117.85235 1168 ft 30 kts 327°
2026-04-24 05:23 33.95264 -117.85250 1141 ft 10 kts 183°
2026-04-24 05:23 33.95205 -117.85202 1107 ft 22 kts
2026-04-24 05:23 33.95250 -117.85145 1144 ft 18 kts 293°
2026-04-24 05:24 33.95296 -117.85230 1138 ft 14 kts 265°
2026-04-24 05:24 33.95288 -117.85262 1135 ft 0 kts 243°
2026-04-24 05:28 33.95300 -117.85367 1246 ft 30 kts 189°
2026-04-24 05:29 33.95285 -117.85728 1538 ft 45 kts 41°
2026-04-24 05:29 33.95308 -117.85603 1930 ft 65 kts 17°
2026-04-24 05:29 33.95920 -117.85345 2014 ft 102 kts
2026-04-24 05:29 33.96652 -117.85247 1947 ft 109 kts 354°
2026-04-24 05:30 33.97446 -117.85354 1797 ft 120 kts 343°
2026-04-24 05:30 33.98261 -117.85614 1630 ft 125 kts 338°
2026-04-24 05:30 33.99137 -117.85940 1218 ft 137 kts 338°
2026-04-24 05:30 33.99988 -117.86273 1213 ft 111 kts 333°
2026-04-24 05:31 34.00645 -117.86564 1547 ft 99 kts 329°
2026-04-24 05:31 34.01298 -117.86798 1788 ft 97 kts 336°
2026-04-24 05:31 34.01949 -117.86936 2031 ft 96 kts 340°
2026-04-24 05:31 34.02665 -117.87184 1994 ft 114 kts 335°
2026-04-24 05:32 34.03427 -117.87528 1858 ft 119 kts 333°
2026-04-24 05:32 34.04189 -117.87912 1798 ft 117 kts 331°
2026-04-24 05:32 34.04905 -117.88305 1810 ft 109 kts 328°
2026-04-24 05:32 34.05550 -117.88690 1909 ft 98 kts 325°
2026-04-24 05:33 34.06141 -117.89102 1901 ft 108 kts 320°
2026-04-24 05:33 34.06813 -117.89662 1762 ft 117 kts 320°
2026-04-24 05:33 34.07487 -117.90214 1702 ft 116 kts 323°
2026-04-24 05:34 34.08962 -117.90708 1960 ft 110 kts 339°
2026-04-24 05:34 34.09682 -117.90938 2144 ft 105 kts 335°
2026-04-24 05:34 34.10343 -117.91211 2412 ft 94 kts 330°
2026-04-24 05:34 34.10880 -117.91493 2784 ft 74 kts 322°
2026-04-24 05:35 34.11246 -117.91752 3186 ft 48 kts 311°
2026-04-24 05:35 34.11461 -117.91936 3481 ft 37 kts 306°
2026-04-24 05:35 34.11756 -117.91773 3552 ft 69 kts 12°
2026-04-24 05:35 34.12130 -117.91085 3298 ft 113 kts 51°
2026-04-24 05:36 34.12577 -117.90334 3274 ft 113 kts 42°
2026-04-24 05:36 34.13205 -117.89778 3252 ft 111 kts 21°
2026-04-24 05:36 34.13918 -117.89531 3306 ft 102 kts 360°
2026-04-24 05:36 34.14580 -117.89605 3342 ft 89 kts 336°
2026-04-24 05:37 34.15078 -117.89939 3366 ft 80 kts 319°
2026-04-24 05:37 34.15609 -117.90128 3267 ft 81 kts 353°
2026-04-24 05:37 34.16196 -117.90017 3090 ft 91 kts 359°
2026-04-24 05:37 34.16861 -117.90158 2850 ft 104 kts 332°
2026-04-24 05:38 34.17457 -117.90603 2782 ft 93 kts 315°
2026-04-24 05:38 34.17894 -117.91042 2892 ft 70 kts 310°
2026-04-24 05:38 34.18172 -117.91394 2971 ft 50 kts 296°
2026-04-24 05:38 34.18178 -117.91828 2776 ft 53 kts 226°
2026-04-24 05:39 34.18028 -117.91931 2581 ft 26 kts 144°
2026-04-24 05:39 34.17849 -117.91963 2618 ft 21 kts 158°
2026-04-24 05:39 34.17732 -117.91981 2574 ft 3 kts 217°
2026-04-24 05:41 34.17662 -117.91908 2590 ft 38 kts 123°
2026-04-24 05:41 34.17504 -117.91479 2661 ft 72 kts 84°
2026-04-24 05:41 34.17648 -117.90805 2707 ft 94 kts 56°
2026-04-24 05:41 34.18068 -117.90120 2766 ft 107 kts 39°
2026-04-24 05:42 34.18654 -117.89565 2910 ft 106 kts 25°
2026-04-24 05:42 34.19284 -117.89240 3263 ft 96 kts
2026-04-24 05:42 34.19951 -117.89171 3517 ft 97 kts 348°
2026-04-24 05:42 34.20608 -117.89334 3726 ft 96 kts 332°
2026-04-24 05:43 34.21185 -117.89700 3966 ft 92 kts 315°
2026-04-24 05:43 34.21637 -117.90228 4206 ft 87 kts 298°
2026-04-24 05:43 34.21912 -117.90832 4451 ft 80 kts 279°
2026-04-24 05:43 34.21997 -117.91465 4716 ft 72 kts 258°
2026-04-24 05:44 34.21997 -117.92073 4922 ft 73 kts 265°
2026-04-24 05:44 34.22154 -117.92637 5133 ft 69 kts 284°
2026-04-24 05:44 34.22479 -117.93011 5261 ft 63 kts 317°
2026-04-24 05:44 34.22886 -117.92978 5113 ft 62 kts 20°
2026-04-24 05:45 34.23140 -117.92576 4719 ft 59 kts 17°
2026-04-24 05:45 34.23400 -117.92120 4058 ft 73 kts 54°
2026-04-24 05:45 34.23715 -117.91631 3462 ft 67 kts 44°
2026-04-24 05:45 34.24020 -117.91485 2933 ft 31 kts 22°
2026-04-24 05:46 34.23944 -117.91843 2477 ft 45 kts 220°
2026-04-24 05:46 34.24087 -117.91946 2674 ft 56 kts 15°
2026-04-24 05:46 34.23844 -117.91654 2369 ft 76 kts 210°
2026-04-24 05:46 34.23881 -117.91660 2545 ft 53 kts 19°
2026-04-24 05:47 34.23840 -117.91110 2703 ft 61 kts 95°
2026-04-24 05:47 34.23746 -117.90853 3191 ft 8 kts 78°
2026-04-24 05:47 34.23926 -117.90693 3222 ft 72 kts
2026-04-24 05:47 34.24608 -117.90537 3066 ft 115 kts
2026-04-24 05:48 34.25341 -117.90464 3363 ft 96 kts 354°
2026-04-24 05:48 34.25941 -117.90485 3741 ft 75 kts 342°
2026-04-24 05:48 34.26368 -117.90582 4161 ft 52 kts 343°
2026-04-24 05:48 34.26619 -117.90389 4190 ft 38 kts
2026-04-24 05:49 34.26846 -117.90265 3838 ft 30 kts 348°
2026-04-24 05:49 34.26836 -117.90294 3562 ft 58 kts 99°
2026-04-24 05:49 34.26481 -117.89770 3665 ft 68 kts 89°
2026-04-24 05:49 34.26662 -117.89632 3829 ft 35 kts 306°
2026-04-24 05:50 34.26769 -117.89829 3628 ft 20 kts 291°
2026-04-24 05:50 34.26869 -117.89968 3683 ft 26 kts 280°
2026-04-24 05:50 34.26936 -117.90213 3740 ft 32 kts 273°
2026-04-24 05:50 34.26989 -117.90324 3705 ft 3 kts 227°
2026-04-24 05:51 34.26951 -117.90271 3896 ft 14 kts 87°
2026-04-24 05:51 34.27115 -117.90315 3997 ft 32 kts 324°
2026-04-24 05:51 34.27334 -117.90430 4126 ft 34 kts 295°
2026-04-24 05:51 34.27448 -117.90648 4172 ft 38 kts 257°
2026-04-24 05:52 34.27268 -117.90960 4233 ft 51 kts 217°
2026-04-24 05:52 34.27126 -117.91333 4031 ft 43 kts 219°
2026-04-24 05:52 34.26791 -117.91839 3953 ft 98 kts 235°
2026-04-24 05:52 34.26778 -117.92532 4338 ft 55 kts 279°
2026-04-24 05:53 34.26885 -117.92678 4535 ft 31 kts 198°
2026-04-24 05:53 34.27039 -117.92970 4602 ft 21 kts 226°
2026-04-24 05:53 34.26959 -117.93098 4653 ft 15 kts 198°
2026-04-24 05:53 34.26926 -117.93156 4659 ft 17 kts 346°
2026-04-24 05:54 34.26829 -117.93232 4691 ft 23 kts 189°
2026-04-24 05:54 34.26911 -117.93329 4630 ft 8 kts 267°
2026-04-24 05:54 34.26883 -117.93379 4610 ft 40 kts 107°
2026-04-24 05:54 34.26997 -117.93187 4559 ft 70 kts 11°
2026-04-24 05:55 34.27429 -117.93205 4899 ft 53 kts 300°
2026-04-24 05:55 34.27649 -117.93682 5000 ft 78 kts 286°
2026-04-24 05:55 34.27744 -117.94334 5040 ft 93 kts 234°
2026-04-24 05:55 34.27170 -117.94884 5025 ft 92 kts 206°
2026-04-24 05:56 34.26721 -117.95322 5349 ft 80 kts 215°
2026-04-24 05:56 34.26399 -117.95814 5620 ft 69 kts 225°
2026-04-24 05:56 34.26120 -117.96334 5787 ft 77 kts 224°
2026-04-24 05:56 34.25788 -117.96836 5993 ft 76 kts 216°
2026-04-24 05:57 34.25395 -117.97259 6196 ft 77 kts 203°
2026-04-24 05:57 34.24920 -117.97539 6411 ft 73 kts 189°
2026-04-24 05:57 34.24459 -117.97642 6597 ft 61 kts 176°
2026-04-24 05:57 34.24094 -117.97596 6608 ft 44 kts 161°
2026-04-24 05:58 34.23892 -117.97568 6544 ft 47 kts 166°
2026-04-24 05:58 34.23441 -117.97689 6228 ft 87 kts 186°
2026-04-24 05:58 34.22725 -117.97890 5718 ft 122 kts 192°
2026-04-24 05:58 34.21874 -117.98200 5440 ft 121 kts 193°
2026-04-24 05:59 34.21050 -117.98449 5174 ft 129 kts 192°
2026-04-24 05:59 34.20201 -117.98483 5026 ft 119 kts 151°
2026-04-24 05:59 34.19762 -117.97724 4897 ft 113 kts 94°
2026-04-24 05:59 34.19950 -117.96846 4761 ft 108 kts 47°
2026-04-24 06:00 34.20485 -117.96306 4794 ft 90 kts 28°
2026-04-24 06:00 34.20926 -117.95917 4897 ft 67 kts 25°
2026-04-24 06:00 34.21246 -117.95644 4964 ft 44 kts
2026-04-24 06:00 34.21343 -117.95784 4873 ft 16 kts 271°
2026-04-24 06:01 34.21110 -117.95752 4597 ft 60 kts 167°
2026-04-24 06:01 34.20529 -117.95711 4260 ft 106 kts 173°
2026-04-24 06:01 34.19686 -117.95688 3863 ft 127 kts 177°
2026-04-24 06:01 34.18829 -117.95728 3706 ft 124 kts 180°
2026-04-24 06:02 34.17957 -117.95826 3412 ft 128 kts 183°
2026-04-24 06:02 34.17077 -117.95989 3128 ft 128 kts 187°
2026-04-24 06:02 34.16215 -117.96214 2832 ft 125 kts 192°
2026-04-24 06:02 34.15392 -117.96502 2575 ft 121 kts 196°
2026-04-24 06:03 34.14594 -117.96821 2262 ft 122 kts 195°
2026-04-24 06:03 34.13781 -117.97132 1973 ft 121 kts 196°
2026-04-24 06:03 34.13028 -117.97488 1819 ft 110 kts 203°
2026-04-24 06:03 34.12405 -117.97897 1789 ft 93 kts 208°
2026-04-24 06:04 34.11897 -117.98278 1779 ft 79 kts 204°
2026-04-24 06:04 34.11456 -117.98578 1747 ft 67 kts 203°
2026-04-24 06:04 34.11063 -117.98834 1693 ft 61 kts 200°
2026-04-24 06:04 34.10707 -117.99035 1642 ft 52 kts 197°
2026-04-24 06:05 34.10374 -117.99209 1532 ft 57 kts 198°
2026-04-24 06:05 34.10014 -117.99478 1517 ft 64 kts 207°
2026-04-24 06:05 34.09669 -117.99817 1568 ft 62 kts 210°
2026-04-24 06:05 34.09362 -118.00132 1664 ft 54 kts 209°
2026-04-24 06:06 34.09102 -118.00405 1743 ft 46 kts 207°
2026-04-24 06:06 34.08883 -118.00635 1802 ft 38 kts 205°
2026-04-24 06:06 34.08704 -118.00822 1831 ft 30 kts 202°
2026-04-24 06:06 34.08560 -118.00962 1803 ft 23 kts 199°
2026-04-24 06:07 34.08425 -118.01064 1706 ft 25 kts 195°
2026-04-24 06:07 34.08257 -118.01149 1624 ft 27 kts 193°
2026-04-24 06:07 34.08079 -118.01214 1565 ft 26 kts 189°
2026-04-24 06:07 34.07911 -118.01253 1484 ft 23 kts 185°
2026-04-24 06:08 34.07769 -118.01257 1377 ft 18 kts 178°
2026-04-24 06:08 34.07670 -118.01212 1369 ft 15 kts 159°
2026-04-24 06:08 34.07543 -118.01171 1401 ft 26 kts 150°
2026-04-24 06:08 34.07324 -118.01142 1519 ft 35 kts 157°
2026-04-24 06:09 34.07083 -118.01160 1694 ft 34 kts 164°
2026-04-24 06:09 34.06883 -118.01242 1874 ft 25 kts 167°
2026-04-24 06:09 34.06756 -118.01330 2012 ft 25 kts 137°
2026-04-24 06:09 34.06452 -118.01341 2162 ft 64 kts 152°
2026-04-24 06:10 34.05857 -118.01000 1889 ft 119 kts 147°
2026-04-24 06:10 34.05117 -118.00485 1667 ft 127 kts 146°
2026-04-24 06:10 34.04376 -117.99969 1592 ft 116 kts 147°
2026-04-24 06:11 34.03084 -117.99139 1464 ft 93 kts 149°
2026-04-24 06:11 34.02520 -117.98933 1504 ft 75 kts 173°
2026-04-24 06:11 34.02102 -117.99118 1540 ft 58 kts 206°
2026-04-24 06:11 34.01884 -117.99492 1530 ft 53 kts 220°
2026-04-24 06:12 34.01722 -117.99861 1522 ft 45 kts 224°
2026-04-24 06:12 34.01650 -118.00175 1511 ft 32 kts 223°
2026-04-24 06:12 34.01677 -118.00416 1411 ft 31 kts 219°
2026-04-24 06:12 34.01668 -118.00756 1330 ft 66 kts 235°
2026-04-24 06:13 34.01441 -118.01338 1310 ft 78 kts 235°
2026-04-24 06:13 34.01199 -118.01898 1479 ft 72 kts 230°
2026-04-24 06:13 34.00961 -118.02376 1693 ft 61 kts 225°
2026-04-24 06:13 34.00752 -118.02747 1882 ft 46 kts 220°
2026-04-24 06:14 34.00589 -118.02991 2044 ft 28 kts 214°
2026-04-24 06:14 34.00491 -118.03091 2064 ft 9 kts 205°
2026-04-24 06:14 34.00536 -118.03037 1957 ft 31 kts 20°
2026-04-24 06:14 34.00856 -118.03039 1956 ft 58 kts 343°
2026-04-24 06:15 34.01300 -118.03168 1989 ft 71 kts 332°
2026-04-24 06:15 34.01776 -118.03399 2074 ft 75 kts 325°
2026-04-24 06:15 34.02228 -118.03698 2213 ft 72 kts 318°
2026-04-24 06:15 34.02615 -118.04034 2395 ft 65 kts 310°
2026-04-24 06:16 34.02913 -118.04380 2591 ft 54 kts 302°
2026-04-24 06:16 34.03098 -118.04709 2774 ft 41 kts 287°
2026-04-24 06:16 34.03059 -118.04960 2900 ft 29 kts 223°
2026-04-24 06:16 34.02846 -118.05207 2912 ft 66 kts 212°
2026-04-24 06:17 34.02374 -118.05726 2768 ft 113 kts 212°
2026-04-24 06:17 34.01729 -118.06320 2660 ft 121 kts 212°
2026-04-24 06:17 34.01040 -118.06942 2428 ft 128 kts 214°
2026-04-24 06:17 34.00332 -118.07634 2087 ft 132 kts 217°
2026-04-24 06:18 33.99658 -118.08347 1894 ft 124 kts 215°
2026-04-24 06:18 33.99002 -118.08940 1856 ft 111 kts 207°
2026-04-24 06:18 33.98391 -118.09400 1892 ft 97 kts 206°
2026-04-24 06:18 33.97872 -118.09874 1906 ft 92 kts 213°
2026-04-24 06:19 33.97419 -118.10391 1912 ft 88 kts 216°
2026-04-24 06:19 33.96991 -118.10886 1960 ft 80 kts 213°
2026-04-24 06:19 33.96613 -118.11301 2055 ft 67 kts 211°
2026-04-24 06:19 33.96291 -118.11641 2130 ft 60 kts 209°
2026-04-24 06:20 33.96007 -118.12004 2168 ft 58 kts 214°
2026-04-24 06:20 33.95775 -118.12379 2214 ft 56 kts 218°
2026-04-24 06:20 33.95568 -118.12770 2239 ft 54 kts 221°
2026-04-24 06:20 33.95404 -118.13154 2280 ft 48 kts 223°
2026-04-24 06:21 33.95238 -118.13420 2321 ft 37 kts 194°
2026-04-24 06:21 33.94817 -118.13348 2051 ft 87 kts 171°
2026-04-24 06:21 33.94078 -118.13439 1591 ft 122 kts 189°
2026-04-24 06:21 33.93244 -118.13755 1285 ft 129 kts 195°
2026-04-24 06:22 33.92425 -118.14130 1164 ft 119 kts 193°
2026-04-24 06:22 33.91628 -118.14353 1040 ft 116 kts 186°
2026-04-24 06:22 33.90856 -118.14524 973 ft 109 kts 184°
2026-04-24 06:22 33.90129 -118.14660 934 ft 103 kts 181°
2026-04-24 06:23 33.89441 -118.14779 915 ft 97 kts 181°
2026-04-24 06:23 33.88794 -118.14879 921 ft 91 kts 179°
2026-04-24 06:23 33.88185 -118.14957 950 ft 85 kts 176°
2026-04-24 06:23 33.87604 -118.15004 958 ft 83 kts 174°
2026-04-24 06:24 33.87017 -118.15084 870 ft 87 kts 184°
2026-04-24 06:24 33.86447 -118.15199 738 ft 75 kts 181°
2026-04-24 06:24 33.86009 -118.15241 771 ft 50 kts 171°
2026-04-24 06:24 33.85739 -118.15212 712 ft 28 kts 163°
2026-04-24 06:25 33.85614 -118.15223 656 ft 21 kts 153°
2026-04-24 06:25 33.85381 -118.15425 788 ft 57 kts 176°
2026-04-24 06:25 33.84866 -118.15536 842 ft 92 kts 176°
2026-04-24 06:25 33.84156 -118.15607 906 ft 105 kts 176°
2026-04-24 06:26 33.83489 -118.15620 1176 ft 91 kts 161°
2026-04-24 06:26 33.83077 -118.15222 1376 ft 67 kts 94°
2026-04-24 06:26 33.83369 -118.14949 1420 ft 69 kts 343°
2026-04-24 06:26 33.83849 -118.15285 920 ft 88 kts 314°
2026-04-24 06:27 33.84229 -118.15862 508 ft 81 kts 292°
2026-04-24 06:27 33.84215 -118.16255 331 ft 28 kts 217°
2026-04-24 06:27 33.84145 -118.16158 227 ft 21 kts 33°
2026-04-24 06:27 33.83865 -118.15937 165 ft 51 kts 65°
2026-04-24 06:28 33.83576 -118.15831 246 ft 34 kts 72°
2026-04-24 06:28 33.83374 -118.15696 263 ft 32 kts 71°
2026-04-24 06:28 33.83200 -118.15584 317 ft 25 kts 110°
2026-04-24 06:28 33.82976 -118.15623 313 ft 36 kts 114°
2026-04-24 06:29 33.82786 -118.15350 331 ft 60 kts 101°
2026-04-24 06:29 33.82716 -118.14740 274 ft 85 kts 86°
2026-04-24 06:29 33.82608 -118.14138 408 ft 61 kts 113°
2026-04-24 06:29 33.82288 -118.14025 455 ft 34 kts 153°
2026-04-24 06:30 33.82126 -118.14087 330 ft 38 kts 155°
2026-04-24 06:30 33.81956 -118.14163 274 ft 27 kts 147°
2026-04-24 06:30 33.81702 -118.14111 73 ft 37 kts 155°
2026-04-24 06:30 33.81660 -118.14106 42 ft 0 kts 45°
2026-04-24 06:31 33.81666 -118.14102 41 ft 0 kts 87°
2026-04-24 06:31 33.81667 -118.14103 41 ft 0 kts 87°
2026-04-24 06:39 33.81669 -118.14088 45 ft 6 kts 76°
2026-04-24 06:39 33.81696 -118.14166 303 ft 9 kts 159°
2026-04-24 06:39 33.81937 -118.14253 547 ft 66 kts 313°
2026-04-24 06:40 33.82472 -118.14636 612 ft 107 kts 324°
2026-04-24 06:40 33.83087 -118.14842 1193 ft 78 kts 340°
2026-04-24 06:40 33.83690 -118.14990 1398 ft 105 kts 336°
2026-04-24 06:40 33.84347 -118.15182 1839 ft 90 kts 343°
2026-04-24 06:41 33.85048 -118.15218 2032 ft 90 kts 355°
2026-04-24 06:41 33.85619 -118.15202 1926 ft 75 kts
2026-04-24 06:41 33.86090 -118.15116 1722 ft 60 kts
2026-04-24 06:41 33.86458 -118.15089 1586 ft 48 kts 352°
2026-04-24 06:42 33.86769 -118.15082 1350 ft 46 kts 351°
2026-04-24 06:42 33.87169 -118.15093 1127 ft 68 kts 351°
2026-04-24 06:42 33.87695 -118.15126 947 ft 82 kts 352°
2026-04-24 06:42 33.88296 -118.15167 777 ft 90 kts 352°
2026-04-24 06:43 33.88932 -118.15206 623 ft 92 kts 352°
2026-04-24 06:43 33.89574 -118.15237 493 ft 91 kts 353°
2026-04-24 06:43 33.90165 -118.15264 470 ft 78 kts 351°
2026-04-24 06:43 33.90677 -118.15303 431 ft 71 kts 348°
2026-04-24 06:44 33.91140 -118.15338 410 ft 61 kts 348°
2026-04-24 06:44 33.91517 -118.15351 406 ft 46 kts 347°
2026-04-24 06:44 33.91775 -118.15340 350 ft 28 kts 345°
2026-04-24 06:44 33.91897 -118.15313 229 ft 8 kts 330°
2026-04-24 06:45 33.92018 -118.15144 228 ft 45 kts 37°
2026-04-24 06:45 33.92405 -118.15052 272 ft 76 kts 348°
2026-04-24 06:45 33.93012 -118.15076 299 ft 94 kts 351°
2026-04-24 06:45 33.93690 -118.15120 369 ft 101 kts 348°
2026-04-24 06:46 33.94419 -118.15220 381 ft 110 kts 347°
2026-04-24 06:46 33.95201 -118.15331 381 ft 116 kts 348°
2026-04-24 06:46 33.96001 -118.15438 435 ft 115 kts 348°
2026-04-24 06:46 33.96797 -118.15538 481 ft 115 kts 348°
2026-04-24 06:47 33.97594 -118.15615 539 ft 115 kts 353°
2026-04-24 06:47 33.98385 -118.15684 603 ft 114 kts 346°
2026-04-24 06:47 33.99161 -118.15838 697 ft 110 kts 342°
2026-04-24 06:47 33.99885 -118.16111 794 ft 108 kts 329°
2026-04-24 06:48 34.00505 -118.16631 887 ft 108 kts 310°
2026-04-24 06:48 34.00980 -118.17397 758 ft 122 kts 295°
2026-04-24 06:48 34.01282 -118.18346 686 ft 118 kts 276°
2026-04-24 06:48 34.01377 -118.19292 727 ft 109 kts 265°
2026-04-24 06:49 34.01377 -118.20161 774 ft 100 kts 265°
2026-04-24 06:49 34.01513 -118.20965 739 ft 93 kts 282°
2026-04-24 06:49 34.01744 -118.21635 748 ft 83 kts 287°
2026-04-24 06:49 34.01953 -118.22237 685 ft 70 kts 281°
2026-04-24 06:50 34.02141 -118.22694 659 ft 52 kts 288°
2026-04-24 06:50 34.02314 -118.22909 579 ft 24 kts 283°
2026-04-24 06:50 34.02477 -118.23105 485 ft 62 kts 276°
2026-04-24 06:50 34.02617 -118.23763 412 ft 92 kts 274°
2026-04-24 06:51 34.02728 -118.24475 544 ft 77 kts 266°
2026-04-24 06:51 34.02744 -118.25022 736 ft 56 kts 260°
2026-04-24 06:51 34.03009 -118.24998 653 ft 65 kts 58°
2026-04-24 06:51 34.03289 -118.24578 708 ft 66 kts 36°
2026-04-24 06:52 34.03399 -118.24159 819 ft 50 kts 97°
2026-04-24 06:52 34.03271 -118.24395 626 ft 76 kts 319°
2026-04-24 06:52 34.03641 -118.24094 571 ft 74 kts 78°
2026-04-24 06:52 34.03274 -118.23803 570 ft 74 kts 166°
2026-04-24 06:53 34.02731 -118.23811 555 ft 80 kts 175°
2026-04-24 06:53 34.02269 -118.23987 677 ft 62 kts 240°
2026-04-24 06:53 34.02452 -118.23852 562 ft 60 kts 66°
2026-04-24 06:53 34.02683 -118.23392 583 ft 68 kts 39°
2026-04-24 06:54 34.03081 -118.23032 608 ft 74 kts 23°
2026-04-24 06:54 34.03550 -118.22779 677 ft 72 kts 10°
2026-04-24 06:54 34.04032 -118.22679 687 ft 65 kts 353°
2026-04-24 06:54 34.04378 -118.22794 696 ft 37 kts 332°
2026-04-24 06:55 34.04557 -118.22926 685 ft 29 kts 325°
2026-04-24 06:55 34.04734 -118.23034 646 ft 31 kts 335°
2026-04-24 06:55 34.04949 -118.23039 606 ft 29 kts 334°
2026-04-24 06:55 34.05101 -118.23046 453 ft 19 kts 331°
2026-04-24 06:56 34.05194 -118.23006 456 ft 19 kts 319°
2026-04-24 06:56 34.05317 -118.23003 384 ft 4 kts 348°
2026-04-24 06:56 34.05361 -118.22964 409 ft 24 kts 298°
2026-04-24 06:56 34.05397 -118.23010 368 ft 0 kts 217°
2026-04-24 06:57 34.05405 -118.23015 367 ft 4 kts 211°
2026-04-24 06:57 34.05409 -118.23024 390 ft 46 kts 314°
2026-04-24 06:57 34.05218 -118.23374 898 ft 31 kts 187°
2026-04-24 06:57 34.05219 -118.23149 593 ft 12 kts 64°
2026-04-24 06:58 34.05256 -118.23012 425 ft 29 kts
2026-04-24 06:58 34.05314 -118.22979 376 ft 20 kts 303°
2026-04-24 06:58 34.05386 -118.23004 367 ft 1 kts 296°
2026-04-24 06:58 34.05386 -118.23006 365 ft 0 kts 294°
2026-04-24 06:59 34.05385 -118.23012 365 ft 1 kts 11°
2026-04-24 06:59 34.05383 -118.23010 365 ft 0 kts 14°
2026-04-24 07:11 34.05403 -118.22961 400 ft 22 kts
2026-04-24 07:11 34.05825 -118.22845 444 ft 90 kts
2026-04-24 07:11 34.06210 -118.22224 699 ft 99 kts 72°
2026-04-24 07:11 34.06077 -118.21425 953 ft 98 kts 105°
2026-04-24 07:12 34.05620 -118.20831 1168 ft 101 kts 139°
2026-04-24 07:12 34.04898 -118.20596 1212 ft 114 kts 170°
2026-04-24 07:12 34.04091 -118.20635 1159 ft 118 kts 178°
2026-04-24 07:12 34.03293 -118.20717 1169 ft 111 kts 179°
2026-04-24 07:13 34.02566 -118.20829 1301 ft 98 kts 181°
2026-04-24 07:13 34.01967 -118.20965 1549 ft 76 kts 181°
2026-04-24 07:13 34.01543 -118.21116 1841 ft 50 kts 181°
2026-04-24 07:13 34.01318 -118.21278 2042 ft 29 kts 182°
2026-04-24 07:14 34.01255 -118.21508 2151 ft 43 kts 166°
2026-04-24 07:14 34.01030 -118.21972 2239 ft 89 kts 211°
2026-04-24 07:14 34.00328 -118.22224 2080 ft 117 kts 176°
2026-04-24 07:14 33.99513 -118.22222 1998 ft 114 kts 172°
2026-04-24 07:15 33.98724 -118.22152 1939 ft 114 kts 167°
2026-04-24 07:15 33.97935 -118.22018 1855 ft 117 kts 164°
2026-04-24 07:15 33.97136 -118.21831 1726 ft 118 kts 162°
2026-04-24 07:15 33.96336 -118.21606 1604 ft 117 kts 161°
2026-04-24 07:16 33.95542 -118.21419 1517 ft 116 kts 167°
2026-04-24 07:16 33.94721 -118.21307 1396 ft 116 kts 169°
2026-04-24 07:16 33.93934 -118.21236 1357 ft 112 kts 168°
2026-04-24 07:16 33.93168 -118.21164 1304 ft 109 kts 174°
2026-04-24 07:17 33.92634 -118.21576 1464 ft 88 kts 244°
2026-04-24 07:17 33.92464 -118.22339 1326 ft 107 kts 247°
2026-04-24 07:17 33.92263 -118.23341 920 ft 130 kts 258°
2026-04-24 07:17 33.92273 -118.24437 598 ft 130 kts 274°
2026-04-24 07:18 33.92407 -118.25415 521 ft 106 kts 277°
2026-04-24 07:18 33.92573 -118.26213 484 ft 91 kts 277°
2026-04-24 07:18 33.92698 -118.26912 512 ft 82 kts 272°
2026-04-24 07:18 33.92811 -118.27569 506 ft 79 kts 275°
2026-04-24 07:19 33.92945 -118.28191 476 ft 74 kts 278°
2026-04-24 07:19 33.93059 -118.28750 447 ft 63 kts 268°
2026-04-24 07:19 33.93093 -118.29220 425 ft 47 kts 263°
2026-04-24 07:19 33.93111 -118.29528 369 ft 26 kts 260°
2026-04-24 07:20 33.93134 -118.29645 366 ft 20 kts 237°
2026-04-24 07:20 33.93074 -118.29823 512 ft 27 kts 206°
2026-04-24 07:20 33.92904 -118.29836 366 ft 38 kts 161°
2026-04-24 07:20 33.92781 -118.30063 424 ft 16 kts 171°
2026-04-24 07:21 33.92735 -118.29931 332 ft 33 kts 57°
2026-04-24 07:21 33.92807 -118.30063 392 ft 15 kts 179°
2026-04-24 07:21 33.92537 -118.30035 454 ft 45 kts 156°
2026-04-24 07:21 33.92426 -118.29783 581 ft 45 kts
2026-04-24 07:22 33.92742 -118.29793 333 ft 36 kts 327°
2026-04-24 07:22 33.92810 -118.29821 223 ft 16 kts 270°
2026-04-24 07:22 33.92858 -118.29902 211 ft 0 kts 275°
2026-04-24 07:22 33.92858 -118.29903 212 ft 0 kts 271°
2026-04-24 07:23 33.92857 -118.29904 212 ft 0 kts 300°
2026-04-24 07:23 33.92861 -118.29898 212 ft 1 kts 30°
2026-04-24 07:23 33.92863 -118.29896 212 ft 0 kts 26°
2026-04-24 07:25 33.92883 -118.29862 238 ft 21 kts 360°
2026-04-24 07:26 33.93073 -118.29504 318 ft 73 kts 38°
2026-04-24 07:26 33.93270 -118.28910 351 ft 77 kts 72°
2026-04-24 07:26 33.93380 -118.28357 518 ft 62 kts 59°
2026-04-24 07:26 33.93701 -118.27963 546 ft 73 kts 21°
2026-04-24 07:27 33.94250 -118.27805 477 ft 94 kts 355°
2026-04-24 07:27 33.94960 -118.27847 361 ft 107 kts 347°
2026-04-24 07:27 33.95699 -118.27990 337 ft 107 kts 343°
2026-04-24 07:27 33.96423 -118.28089 356 ft 104 kts 352°